Regional Weather Roundup
Issued by NWS Goodland, KS

Home | Current Version | Previous Version | Text Only | Print | Product List | Glossary Off
Versions: 1 2 3 4 5 6 7 8 9 10 11 12 13 14 15 16 17 18 19 20 21 22 23 24 25 26 27 28 29 30 31 32 33 34 35 36 37 38 39 40 41 42 43 44 45 46 47 48 49 50

000
ASUS43 KGLD 201859
RWRGLD

GOODLAND FORECAST AREA HOURLY WEATHER ROUNDUP
NATIONAL WEATHER SERVICE GOODLAND KS
100 PM MDT MON APR 20 2015

...OFFICIAL OBSERVATIONS...

CITY           SKY/WX    TMP DP  RH WIND       PRES   REMARKS
GOODLAND KS    MOSUNNY   53  28  38 NW12G18   29.97F
HILL CITY KS   MOSUNNY   58  27  30 NW22G31   29.95F
IMPERIAL NEB   PTSUNNY   53  24  32 NW21      29.93F
MCCOOK NEB     PTSUNNY   56  22  26 NW21      29.92F
AKRON CO       MOSUNNY   51  27  39 W9G23     29.95F
BURLINGTON CO  CLOUDY    52  29  41 NW14      29.97F
LIMON CO       MOSUNNY   50  28  42 MISG      29.96F
$$

...UNOFFICIAL OBSERVATIONS...

CITY           SKY/WX    TMP DP  RH WIND       PRES   REMARKS
COLBY KS       MOSUNNY   55  32  41 NW15G26   29.97F
GOVE KS          N/A     58  32  37 MISG        N/A
LENORA KS        N/A     54  32  43 MISG        N/A
NORTON KS      MOSUNNY   57  19  23 NW18G28   29.92F
SHARON SPRINGS   N/A     56  37  49 MISG        N/A
TRIBUNE KS     PTSUNNY   55  34  44 W7        30.00
KIT CARSON CO    N/A     53  31  42 MISG        N/A
YUMA CO          N/A     51  31  45 W15         N/A
$$


USA.gov is the U.S. government's official web portal to all federal, state and local government web resources and services.